Alpena, MI

11:10 PM EDT on August 31, 2016 (GMT -0400)
Alpena County Regional

Weather History for KAPN - November, 2014

Change the Weather History Date:

Saturday, November 29, 2014

  Actual Average Record
Temperature  
Mean Temperature 32 °F 31 °F  
Max Temperature 41 °F 37 °F 61 °F (1998)
Min Temperature 23 °F 24 °F -6 °F (1995)
Degree Days  
Heating Degree Days 33 34  
Month to date heating degree days 983 844  
Since 1 July heating degree days 1902 1788  
Moisture  
Dew Point 27 °F    
Average Humidity 83    
Maximum Humidity 96    
Minimum Humidity 70    
Precipitation  
Precipitation 0.00 in 0.06 in 1.82 in (1966)
Month to date precipitation 3.49 2.03  
Year to date precipitation 33.11 26.34  
Snow  
Snow 0.00 in 0.40 in 15.00 in (1966)
Month to date snowfall 15.6 7.2  
Since 1 July snowfall 15.6 7.6  
Snow Depth 9.00 in    
Sea Level Pressure  
Sea Level Pressure 29.79 in    
Wind  
Wind Speed 10 mph (SSE)    
Max Wind Speed 14 mph    
Max Gust Speed -    
Visibility 9 miles    
Events      
T = Trace of Precipitation, MM = Missing Value Source: NWS Daily Summary

Daily Weather History Graph

Daily Weather History Graph

Search for Another Location

Airport or City:

Trip Planner

Search our weather history database for the weather conditions in past years. The results will help you decide how hot, cold, wet, or windy it might be!

Date:

Astronomy

Nov. 29, 2014 Rise Set
Actual Time 7:50 AM EST 4:54 PM EST
Civil Twilight 7:17 AM EST 5:27 PM EST
Nautical Twilight 6:40 AM EST 6:04 PM EST
Astronomical Twilight 6:05 AM EST 6:39 PM EST
Moon 1:06 PM EST (11/29) No Moon Set
Length of Visible Light 10h 10m
Length of Day
9h 04m
First Quarter, 53% of the Moon is Illuminated
Nov 29
First Quarter
Dec 6
Full
Dec 14
Last Quarter
Dec 21
New
Dec 28
First Quarter

Hourly Weather History & Observations

Time (EST) Temp. Windchill Dew Point Humidity Pressure Visibility Wind Dir Wind Speed Gust Speed Precip Events Conditions
12:54 AM 24.1 °F 14.4 °F 21.0 °F 88% 30.05 in 10.0 mi South 9.2 mph - N/A   Overcast
1:28 AM 25.0 °F 16.3 °F 21.0 °F 85% 30.00 in 10.0 mi SSE 8.1 mph - N/A   Overcast
1:54 AM 25.0 °F 15.5 °F 21.9 °F 88% 30.03 in 10.0 mi South 9.2 mph - N/A   Overcast
2:04 AM 25.0 °F 16.3 °F 21.9 °F 88% 29.99 in 10.0 mi South 8.1 mph - N/A   Overcast
2:54 AM 25.0 °F 15.5 °F 21.9 °F 88% 30.01 in 10.0 mi South 9.2 mph - N/A   Overcast
3:54 AM 26.1 °F 16.8 °F 23.0 °F 88% 29.99 in 9.0 mi South 9.2 mph - N/A   Overcast
4:54 AM 26.1 °F 16.2 °F 23.0 °F 88% 29.97 in 8.0 mi South 10.4 mph - N/A   Overcast
5:54 AM 27.0 °F 18.0 °F 24.1 °F 89% 29.95 in 8.0 mi South 9.2 mph - N/A   Overcast
6:54 AM 27.0 °F 18.0 °F 24.1 °F 89% 29.91 in 8.0 mi SSE 9.2 mph - N/A   Overcast
7:54 AM 28.0 °F 19.3 °F 25.0 °F 88% 29.90 in 8.0 mi SSE 9.2 mph - N/A   Overcast
8:54 AM 28.9 °F 19.2 °F 26.1 °F 89% 29.89 in 7.0 mi South 11.5 mph - N/A   Mostly Cloudy
9:54 AM 30.9 °F 20.7 °F 27.0 °F 85% 29.86 in 7.0 mi South 13.8 mph - N/A   Overcast
10:54 AM 30.9 °F 21.7 °F 26.1 °F 82% 29.83 in 9.0 mi South 11.5 mph - N/A   Clear
11:54 AM 32.0 °F 23.0 °F 27.0 °F 82% 29.79 in 9.0 mi SSE 11.5 mph - N/A   Clear
12:54 PM 35.1 °F 26.4 °F 28.0 °F 76% 29.73 in 10.0 mi SSE 12.7 mph - N/A   Clear
1:54 PM 37.0 °F 28.9 °F 28.9 °F 73% 29.70 in 10.0 mi SSE 12.7 mph - N/A   Clear
2:54 PM 36.0 °F 27.5 °F 28.9 °F 76% 29.68 in 10.0 mi SSE 12.7 mph - N/A   Mostly Cloudy
3:54 PM 36.0 °F 28.0 °F 28.9 °F 76% 29.66 in 10.0 mi SSE 11.5 mph - N/A   Clear
4:54 PM 35.1 °F 28.6 °F 30.0 °F 82% 29.64 in 10.0 mi SSE 8.1 mph - N/A   Clear
5:50 PM 35.6 °F 27.5 °F 30.2 °F 81% 29.61 in 10.0 mi SSE 11.5 mph - N/A   Mostly Cloudy
5:54 PM 36.0 °F 27.5 °F 30.0 °F 79% 29.63 in 10.0 mi SSE 12.7 mph - N/A   Mostly Cloudy
6:54 PM 37.0 °F 30.4 °F 30.9 °F 79% 29.63 in 10.0 mi South 9.2 mph - N/A   Overcast
7:54 PM 37.0 °F 29.3 °F 32.0 °F 82% 29.60 in 10.0 mi South 11.5 mph - N/A   Overcast
8:54 PM 37.9 °F 32.1 °F 33.1 °F 83% 29.60 in 10.0 mi South 8.1 mph - N/A   Overcast
9:54 PM 37.9 °F 32.7 °F 34.0 °F 86% 29.59 in 10.0 mi South 6.9 mph - N/A   Overcast
10:54 PM 37.0 °F 31.6 °F 34.0 °F 89% 29.58 in 10.0 mi South 6.9 mph - N/A   Overcast
11:54 PM 41.0 °F 34.7 °F 36.0 °F 82% 29.56 in 10.0 mi South 10.4 mph - N/A   Overcast